BM6HML-1 Weather Reports


time (UTC)temp
C
wind
direction
speed
KPH
gust
KPH
rain 1hr
cm
rain 24hr
cm
rain mn
cm
humidity
%
barometer
mb
20260504081420 32 0.0 0.0 0.00 0.00 0.00 65 1011.2
20260504045420 32 0.0 0.0 0.00 0.00 0.00 70 1011.6
20260504043419 32 0.0 0.0 0.00 0.00 0.00 71 1011.7
20260504041420 32 0.0 0.0 0.00 0.00 0.00 71 1011.6
20260504035420 32 0.0 0.0 0.00 0.00 0.00 72 1012.0
20260504033419 32 0.0 0.0 0.00 0.00 0.00 72 1012.2
20260504031420 32 0.0 0.0 0.00 0.00 0.00 72 1012.3
20260504025419 32 0.0 0.0 0.00 0.00 0.00 72 1012.3
20260504023419 32 0.0 0.0 0.00 0.00 0.00 73 1012.3
20260504021420 32 0.0 0.0 0.00 0.00 0.00 73 1012.2
20260504015419 32 0.0 0.0 0.00 0.00 0.00 74 1012.0
20260504013420 32 0.0 0.0 0.00 0.00 0.00 75 1012.4
20260504011420 32 0.0 0.0 0.00 0.00 0.00 76 1012.3
20260504005419 32 0.0 0.0 0.00 0.00 0.00 76 1011.8
20260504003420 32 0.0 0.0 0.00 0.00 0.00 74 1011.8
20260504001419 32 0.0 0.0 0.00 0.00 0.00 74 1011.7
20260503235420 32 0.0 0.0 0.00 0.00 0.00 73 1011.4
20260503233420 32 0.0 0.0 0.00 0.00 0.00 76 1011.3
20260503231419 32 0.0 0.0 0.00 0.00 0.00 76 1011.4
20260503225420 32 0.0 0.0 0.00 0.00 0.00 75 1011.4
20260503223419 32 0.0 0.0 0.00 0.00 0.00 75 1011.1
20260503221420 32 0.0 0.0 0.00 0.00 0.00 75 1011.1
20260503215419 32 0.0 0.0 0.00 0.00 0.00 75 1011.1
20260503213420 32 0.0 0.0 0.00 0.00 0.00 75 1011.0
20260503211420 32 0.0 0.0 0.00 0.00 0.00 76 1011.1
20260503205419 32 0.0 0.0 0.00 0.00 0.00 75 1011.0
20260503203420 32 0.0 0.0 0.00 0.00 0.00 76 1011.0
20260503201419 32 0.0 0.0 0.00 0.00 0.00 76 1010.9
20260503195420 32 0.0 0.0 0.00 0.00 0.00 76 1010.9
20260503193420 32 0.0 0.0 0.00 0.00 0.00 77 1010.5
20260503191419 32 0.0 0.0 0.00 0.00 0.00 76 1010.5
20260503185420 32 0.0 0.0 0.00 0.00 0.00 76 1010.7
20260503183419 32 0.0 0.0 0.00 0.00 0.00 77 1010.6
20260503181420 32 0.0 0.0 0.00 0.00 0.00 77 1010.5
20260503175420 32 0.0 0.0 0.00 0.00 0.00 78 1010.7
20260503173419 32 0.0 0.0 0.00 0.00 0.00 78 1010.7
20260503171420 32 0.0 0.0 0.00 0.00 0.00 78 1010.9
20260503131419 30 0.0 0.0 0.00 0.00 0.00 87 1009.6